Погода в Шелленберге

Лихтенштейн     47°13′51″N   9°32′47″E
темп.,
°C
ветер,
м/с
пор.,
м/с
влажн.,
%
обл.,
%
осадки,
мм/ч
давл.,
гПа
погр.,
м
21 июня, пн
пн2123:00+15ссв01100100 3.8 101075
02:00+15ююз119994 4.1 101048
05:00+13ююз229872 1.8 101147
08:00+15ю129218 2.4 1010153
11:00+21св226148 0.1 10091248
14:00+22с435784 0.7 10081529
17:00+21с336070 0.3 10081288
20:00+18ссз11907 1.4 100846
22 июня, вт
вт2223:00+13зсз219814 2.3 101229
02:00+14сз11100100 3.8 101386
05:00+14ссв019994 1.4 101296
08:00+15ю129448 1.4 1011184
11:00+19с217012 0.3 1011950
14:00+20ссз227329 2.1 1011973
17:00+19ссз338520 1.9 1012696
20:00+16сз129689 4.5 1014159
23 июня, ср
ср2323:00+14з129895 2.3 101764
02:00+13с1296100 3.6 101855
05:00+12ю119685 0.1 101817
08:00+14ююв12878 0.1 1018181
11:00+19ссв22577 0.0 10161064
14:00+22ссв435396 0.1 10141419
17:00+18ссз118751 8.0 1015439
20:00+16зсз229568 9.1 1015197
24 июня, чт
чт2423:00+11ссз119825 2.2 102023
02:00+10ю219812 2.2 102022
05:00+10ююз22963 0.0 101830
08:00+13сз01902 0.0 1019201
11:00+18ссв226757 0.0 10181041
14:00+19с326189 0.2 10171223
17:00+17ссз2382100 2.2 1016256
20:00+13сз3395100 7.8 1018133
25 июня, пт
пт2523:00+11юз2398100 0.6 102294
02:00+11ю2297100 1.3 102162
05:00+10юз0097100 0.3 102117
08:00+11з0194100 0.3 1021110
11:00+12с228993 0.1 1021402
14:00+13ссз228598 0.4 1021347
17:00+15ссз228087 1.1 1020834
20:00+14ссз119413 3.4 102169